Regional Weather Roundup
Issued by NWS

Home | Current Version | Previous Version | Text Only | Print | Product List | Glossary On
Versions: 1 2 3 4 5 6 7 8 9 10 11 12 13 14 15 16 17 18 19 20 21 22 23 24 25 26 27 28 29 30 31 32 33 34 35 36 37 38 39 40 41 42 43 44 45 46 47 48 49 50
000
ASUS44 KEWX 271010
RWRTX
SOUTH TEXAS REGIONAL WEATHER ROUNDUP
NATIONAL WEATHER SERVICE AUSTIN/SAN ANTONIO TX
400 AM CST SAT DEC 27 2014

NOTE: "FAIR" INDICATED FEW OR NO CLOUDS BELOW 12,000 FEET WITH NO
SIGNIFICANT WEATHER AND/OR OBSTRUCTIONS TO VISIBILITY.

* - THESE STATIONS ARE NOT NWS OR FAA STATIONS...AND ARE NOT SUBJECT
    TO NWS AND FAA QUALITY CONTROL.

TXZ171-172-183>190-271100-
TEXAS HILL COUNTRY AND EDWARDS PLATEAU

CITY           SKY/WX    TMP DP  RH WIND       PRES   REMARKS
JUNCTION       CLOUDY    54  40  59 VRB3      29.99R
*LLANO         CLOUDY    59  59 100 N5        30.02R
BURNET         CLOUDY    61  60  97 CALM      29.99R FOG
*HORSESHOE BAY FOG       61  61 100 CALM      29.97R VSB 3/4
*KERRVILLE     CLOUDY    59  57  95 N3        29.96S FOG
*FREDERICKSBRG FOG       58  58  98 CALM      29.98R VSB 3/4
*ROCKSPRINGS   CLOUDY    52  41  66 N8        29.99S
*BOERNE STAGE  CLOUDY    61  59  94 CALM      29.96R VSB 1
HONDO          FOG       62  60  93 E3        29.95R VSB 3/4
*UVALDE        CLOUDY    58  58  98 NE5       29.94R FOG
DEL RIO        CLOUDY    56  41  57 NW12      29.96R
LAUGHLIN AFB   NOT AVBL
CARRIZO SPRGS  CLOUDY    52  50  93 CALM      29.90R
$$

TXZ173-191>194-202-209-217>225-228-271100-
CENTRAL AND SOUTH CENTRAL TEXAS

CITY           SKY/WX    TMP DP  RH WIND       PRES   REMARKS
GEORGETOWN     CLOUDY    63  61  94 CALM      29.95R
AUSTIN/BERGSTM CLOUDY    61  61 100 NE5       29.94R FOG
AUSTIN/MABRY   CLOUDY    65  63  93 CALM      29.95R
*AUSTIN/EXEC   FOG       63  63 100 SE5       29.96R VSB 1/2
*LAGO VISTA    CLOUDY    64  62  94 CALM      29.97R FOG
SAN MARCOS     CLOUDY    63  59  88 CALM      29.93S
NEW BRAUNFELS  CLOUDY    65  62  90 CALM      29.91F FOG
RANDOLPH AFB   MOCLDY    63  63  98 SE2       29.93R
PT SAN ANTONIO CLOUDY    63  63 100 CALM      29.91R FOG
SAN ANTONIO    DRIZZLE   64  62  93 CALM      29.93R FOG
STINSON FIELD  CLOUDY    64  63  96 CALM      29.91R FOG
*PLEASANTON    CLOUDY    65  63  94 SE5       29.91S
*LA GRANGE     MOCLDY    70  68  92 S6        29.93S
*GIDDINGS      CLOUDY    66  65  95 S5        29.98S FOG
*GONZALES      CLOUDY    70  66  88 S9        29.91F
$$

TXZ163>164-176>182-195>201-210>213-226-227-235-271100-
SOUTHEAST TEXAS

CITY           SKY/WX    TMP DP  RH WIND       PRES   REMARKS
COLLEGE STN    CLOUDY    66  65  96 SE8       29.96S
*BRYAN         CLOUDY    65  65  99 CALM      29.97F FOG
*CALDWELL      CLOUDY    64  64 100 CALM      29.99R FOG
*CROCKETT      CLOUDY    66  66 100 SE6       30.02F
*BRENHAM       CLOUDY    69  67  96 SE5       29.97S FOG
HUNTSVILLE     RAIN      65  64  97 CALM      29.98F FOG
CONROE         CLOUDY    67  65  93 SE6       29.99S FOG
HOUSTON BUSH   CLOUDY    69  67  93 S6        29.98S
HOUSTON HOBBY  CLOUDY    69  68  96 SE6       29.97F
*HOUSTON SW AP CLOUDY    58  58 100 CALM      29.98S FOG
PEARLAND       CLOUDY    69  67  93 SE10      29.99F
HOUSTON HOOKS  CLOUDY    70  67  90 S5        29.98S
ELLINGTON FLD  CLOUDY    68  66  94 SE6       29.99S FOG
SUGAR LAND     CLOUDY    71  68  90 S10       29.97S
*HOUSTON EXEC  MOCLDY    68  66  94 S7        29.98S
*CLEVELAND MUN CLOUDY    66  66  99 CALM      30.01R FOG
*WHARTON       CLOUDY    69  68  96 SE12      29.97R FOG
*COLUMBUS      CLOUDY    68  67  99 S10       29.95S FOG
$$

TXZ214>216-236>238-271100-
THE UPPER TEXAS COAST

CITY           SKY/WX    TMP DP  RH WIND       PRES   REMARKS
*ORANGE        CLOUDY    65  65  99 E5        30.04S FOG
PORT ARTHUR    CLOUDY    66  64  93 E9        30.01S FOG
GALVESTON      CLOUDY    66  66 100 SE9       30.00S
ANGLETON       CLOUDY    70  69  97 S15       29.96F
*BAY CITY        N/A     70  70 100 SE9       29.96S FOG
PALACIOS       CLOUDY    68  67  96 SE12      29.95S FOG
$$

TXZ229>234-239>247-271100-
TEXAS COASTAL BEND AND RIO GRANDE PLAINS

CITY           SKY/WX    TMP DP  RH WIND       PRES   REMARKS
VICTORIA       CLOUDY    70  69  97 SE10      29.93S FOG
*BEEVILLE      CLOUDY    68  68  99 S17G24    29.90S
ROCKPORT       PTCLDY    70  68  93 SE12      29.91F FOG
*PORT ARANSAS  CLOUDY    66  66  98 SE9       29.92F FOG
*PORT LAVACA   CLOUDY    68  67  98 SE8       29.94S FOG
*INGLESIDE     PTCLDY    67  65  93 S15G26    29.91F FOG
CORPUS CHRISTI MOCLDY    68  66  93 S15       29.91S FOG
CORPUS NAS     MOCLDY    69  68  96 SE15      29.92S
*ROBSTOWN      NOT AVBL
ALICE          CLOUDY    68  66  93 S9        29.89S
KINGSVILLE NAS CLOUDY    68  68 100 SE9       29.90S
COTULLA        NOT AVBL
LAREDO         NOT AVBL
$$

TXZ248>255-271100-
DEEP SOUTH TEXAS

CITY           SKY/WX    TMP DP  RH WIND       PRES   REMARKS
BROWNSVILLE    CLOUDY    70  67  90 SE10      29.90S
PORT ISABEL    CLOUDY    69  67  93 S10       29.90S FOG
*SOUTH PADRE   CLOUDY    68  68 100 E12       29.91S
HARLINGEN      CLOUDY    70  68  93 S14       29.89S
*HEBBRONVILLE  CLOUDY    62  61  97 SE13      29.88F
MCALLEN        CLOUDY    69  66  90 SE14      29.88R
*WESLACO       CLOUDY    69  65  88 S14G21    29.88S
FALFURRIAS     CLOUDY    69  65  89 SE12      29.89S
EDINBURG       CLOUDY    71  66  82 SE16G23   29.88S
*ZAPATA        CLOUDY    60  60 100 SE6       29.86R
$$

TXZ213>215-236>238-242>244-246-247-251-254-255-271100-
CMAN STATIONS

STATION/POSITION TIME  TEMP    WIND        PRES    WAVE
                       AIR SEA DIR/SP/G            HT/PER
                 (UTC) (F)     (DEG/KT/KT) (MB)    (FT/S)
SABINE PASS      1000   62 60  130/  6/  9 1016.3
SEA RIM ST PARK  1000   62     110/  8/ 10 1016.8
NORTH JETTY/GLS  1000   65 62  180/  9/ 10   N/A
EAGLE POINT      1000   62 59  140/  7/  8 1015.6
MORGANS POINT    1000   62     120/  2/  4 1015.5
MISSION/ARANSAS  0900   66     150/  8     1015.0
PORT O`CONNOR    1000          140/  9/ 11   N/A
PORT ARANSAS     1000   67 63  140/ 15/ 16 1013.4
MALAQUITE BEACH  1000   67 65  130/ 13/ 15 1012.6
BAFFIN BAY       1000   67     140/ 12/ 15 1012.8
PORT ISABEL      1000   69 63  150/  9/ 13 1012.7
$$

GMZ080-GMZ150>470-271100-
OFFSHORE BUOY REPORTS

STATION/POSITION TIME  TEMP    WIND        PRES    WAVE
                       AIR SEA DIR/SP/G            HT/PER
                 (UTC) (F)     (DEG/KT/KT) (MB)    (FT/S)
20 E GALVESTON   1000   64 61  140/  8/ 10 1015.6    4/ 6
90 E PT ARANSAS  1000   73 72  140/ 12/ 14 1015.0    5/ 8
35 NE PT MANSFLD 1000   72 72  170/ 10/ 12 1013.5    6/ 8
200 E PT ISABEL  1000   74 74  150/ 12/ 16 1015.3    4/ 6
$$



USA.gov is the U.S. government's official web portal to all federal, state and local government web resources and services.